When you browse on this site, cookies collect data to enhance your experience and personalize the content and advertising you see.
Visit our Privacy Policy to learn more. By continuing to use the site, you agree to this use of cookies and data.
  • In France
  • List of Countries
  • For 7 days
  • Water Temperature
  • Satellite Maps
  • Weather Map
  • Weather Widgets
  • user-avatar
    Login

    Hourly Weather San Miguel de Tucumán

    Today, 19 January, Saturday

    Time Temperature Precipitation Wind Pressure Humidity
    00:00 +17°C° 0 mm 0 mps 724 mmHg 89%
    01:00 +17°C° 0 mm 0 mps 724 mmHg 90%
    02:00 +17°C° 0 mm 0 mps 725 mmHg 94%
    03:00 +17°C° 0 mm 0 mps 724 mmHg 95%
    04:00 +17°C° 0 mm 0 mps 724 mmHg 95%
    05:00 +17°C° 0 mm 0 mps 724 mmHg 95%
    06:00 +20°C° 0 mm 1 mps 724 mmHg 91%
    07:00 +20°C° 0 mm 1 mps 725 mmHg 86%
    08:00 +21°C° 0 mm 1 mps 725 mmHg 82%
    09:00 +21°C° 0 mm 2 mps 725 mmHg 78%
    10:00 +24°C° 0 mm 2 mps 724 mmHg 74%
    11:00 +25°C° 0 mm 2 mps 724 mmHg 70%
    12:00 +25°C° 0 mm 2 mps 724 mmHg 69%
    13:00 +25°C° 0 mm 2 mps 723 mmHg 69%
    14:00 +26°C° 0 mm 2 mps 722 mmHg 68%
    15:00 +26°C° 0 mm 2 mps 722 mmHg 69%
    16:00 +26°C° 0 mm 2 mps 721 mmHg 70%
    17:00 +25°C° 0 mm 2 mps 721 mmHg 71%
    18:00 +24°C° 0 mm 1 mps 721 mmHg 75%
    19:00 +23°C° 0 mm 1 mps 721 mmHg 79%
    20:00 +20°C° 0 mm 0 mps 721 mmHg 84%
    21:00 +20°C° 0 mm 0 mps 722 mmHg 84%
    22:00 +20°C° 0 mm 0 mps 722 mmHg 85%
    23:00 +21°C° 0 mm 1 mps 723 mmHg 86%

    Tomorrow, 20 January, Sunday

    Time Temperature Precipitation Wind Pressure Humidity
    00:00 +21°C° 0 mm 1 mps 722 mmHg 86%
    01:00 +21°C° 0 mm 1 mps 722 mmHg 87%
    02:00 +20°C° 0 mm 1 mps 721 mmHg 88%
    03:00 +20°C° 0 mm 1 mps 721 mmHg 89%
    04:00 +19°C° 0 mm 1 mps 721 mmHg 90%
    05:00 +19°C° 0 mm 1 mps 720 mmHg 91%
    06:00 +20°C° 0 mm 1 mps 721 mmHg 85%
    07:00 +22°C° 0 mm 1 mps 721 mmHg 79%
    08:00 +23°C° 0 mm 1 mps 721 mmHg 73%
    09:00 +25°C° 0 mm 2 mps 721 mmHg 68%
    10:00 +27°C° 0 mm 2 mps 721 mmHg 63%
    11:00 +29°C° 0 mm 3 mps 721 mmHg 58%
    12:00 +30°C° 0 mm 3 mps 720 mmHg 56%
    13:00 +31°C° 0 mm 3 mps 719 mmHg 55%
    14:00 +33°C° 0 mm 3 mps 719 mmHg 53%
    15:00 +31°C° 0 mm 3 mps 718 mmHg 54%
    16:00 +31°C° 0 mm 3 mps 717 mmHg 56%
    17:00 +31°C° 0 mm 3 mps 716 mmHg 57%
    18:00 +29°C° 0 mm 2 mps 717 mmHg 63%
    19:00 +28°C° 0 mm 1 mps 717 mmHg 69%
    20:00 +26°C° 0 mm 1 mps 717 mmHg 75%
    21:00 +26°C° 0 mm 1 mps 718 mmHg 76%
    22:00 +25°C° 0 mm 1 mps 718 mmHg 76%
    23:00 +25°C° 0 mm 1 mps 718 mmHg 77%

    Day after tomorrow, 21 January, Monday

    Time Temperature Precipitation Wind Pressure Humidity
    00:00 +24°C° 0 mm 1 mps 718 mmHg 79%
    01:00 +24°C° 0 mm 1 mps 717 mmHg 81%
    02:00 +23°C° 0 mm 1 mps 717 mmHg 83%
    03:00 +23°C° 0 mm 1 mps 717 mmHg 84%
    04:00 +20°C° 0 mm 0 mps 717 mmHg 86%
    05:00 +20°C° 0 mm 0 mps 717 mmHg 87%
    06:00 +23°C° 0 mm 1 mps 717 mmHg 82%
    07:00 +25°C° 0 mm 1 mps 718 mmHg 77%
    08:00 +26°C° 0 mm 1 mps 719 mmHg 72%
    09:00 +28°C° 0 mm 1 mps 719 mmHg 66%
    10:00 +30°C° 0 mm 2 mps 719 mmHg 61%
    11:00 +32°C° 0 mm 2 mps 719 mmHg 55%
    12:00 +32°C° 0 mm 2 mps 719 mmHg 54%
    13:00 +34°C° 0 mm 2 mps 718 mmHg 52%
    14:00 +35°C° 0 mm 2 mps 718 mmHg 50%
    15:00 +35°C° 0 mm 2 mps 718 mmHg 51%
    16:00 +35°C° 0 mm 2 mps 717 mmHg 52%
    17:00 +33°C° 0 mm 1 mps 717 mmHg 53%
    18:00 +31°C° 0 mm 1 mps 717 mmHg 59%
    19:00 +30°C° 0 mm 1 mps 718 mmHg 65%
    20:00 +28°C° 0 mm 1 mps 718 mmHg 71%
    21:00 +28°C° 0 mm 1 mps 718 mmHg 71%
    22:00 +27°C° 0 mm 1 mps 719 mmHg 71%
    23:00 +27°C° 0 mm 1 mps 719 mmHg 71%

    22 January, Tuesday

    Time Temperature Precipitation Wind Pressure Humidity
    00:00 +27°C° 0 mm 1 mps 719 mmHg 72%
    01:00 +26°C° 0 mm 1 mps 718 mmHg 74%
    02:00 +26°C° 0 mm 1 mps 717 mmHg 75%
    03:00 +25°C° 0 mm 1 mps 717 mmHg 77%
    04:00 +25°C° 0 mm 1 mps 717 mmHg 79%
    05:00 +24°C° 0 mm 1 mps 716 mmHg 80%
    06:00 +26°C° 0 mm 1 mps 717 mmHg 76%
    07:00 +27°C° 0 mm 1 mps 717 mmHg 71%
    08:00 +29°C° 0 mm 1 mps 717 mmHg 66%
    09:00 +31°C° 0 mm 1 mps 717 mmHg 60%
    10:00 +34°C° 0 mm 2 mps 717 mmHg 54%
    11:00 +36°C° 0 mm 2 mps 717 mmHg 48%
    12:00 +37°C° 0 mm 2 mps 716 mmHg 44%
    13:00 +39°C° 0 mm 2 mps 715 mmHg 41%
    14:00 +40°C° 0 mm 3 mps 715 mmHg 37%
    15:00 +39°C° 0 mm 2 mps 714 mmHg 41%
    16:00 +39°C° 0 mm 2 mps 714 mmHg 44%
    17:00 +37°C° 0 mm 1 mps 714 mmHg 47%
    18:00 +35°C° 0 mm 1 mps 714 mmHg 56%
    19:00 +33°C° 0 mm 1 mps 714 mmHg 64%
    20:00 +31°C° 0 mm 2 mps 715 mmHg 72%
    21:00 +30°C° 0 mm 1 mps 716 mmHg 70%
    22:00 +30°C° 0 mm 1 mps 716 mmHg 69%
    23:00 +30°C° 0 mm 1 mps 717 mmHg 67%

    23 January, Wednesday

    Time Temperature Precipitation Wind Pressure Humidity
    00:00 +30°C° 0 mm 1 mps 717 mmHg 66%
    01:00 +30°C° 0 mm 1 mps 716 mmHg 64%
    02:00 +29°C° 0 mm 1 mps 716 mmHg 63%
    03:00 +29°C° 0 mm 1 mps 716 mmHg 63%
    04:00 +29°C° 0 mm 1 mps 716 mmHg 63%
    05:00 +29°C° 0 mm 1 mps 716 mmHg 63%
    06:00 +28°C° 0 mm 0 mps 717 mmHg 62%
    07:00 +28°C° 0 mm 0 mps 718 mmHg 61%
    08:00 +29°C° 0 mm 0 mps 718 mmHg 60%
    09:00 +34°C° 0 mm 1 mps 718 mmHg 53%
    10:00 +36°C° 0 mm 1 mps 718 mmHg 47%
    11:00 +39°C° 0 mm 1 mps 719 mmHg 40%
    12:00 +39°C° 0 mm 1 mps 718 mmHg 39%
    13:00 +40°C° 0 mm 2 mps 717 mmHg 38%
    14:00 +41°C° 0 mm 2 mps 717 mmHg 37%
    15:00 +40°C° 0 mm 2 mps 717 mmHg 39%
    16:00 +39°C° 0 mm 2 mps 716 mmHg 41%
    17:00 +39°C° 0 mm 2 mps 716 mmHg 43%
    18:00 +37°C° 0 mm 2 mps 716 mmHg 48%
    19:00 +35°C° 0 mm 2 mps 716 mmHg 53%
    20:00 +32°C° 0 mm 2 mps 716 mmHg 58%
    21:00 +31°C° 0 mm 2 mps 717 mmHg 57%
    22:00 +31°C° 0 mm 2 mps 717 mmHg 57%
    23:00 +30°C° 0 mm 2 mps 718 mmHg 56%

    24 January, Thursday

    Time Temperature Precipitation Wind Pressure Humidity
    00:00 +30°C° 0 mm 2 mps 717 mmHg 57%
    01:00 +30°C° 0 mm 1 mps 717 mmHg 58%
    02:00 +29°C° 0 mm 1 mps 716 mmHg 59%
    03:00 +29°C° 0 mm 1 mps 716 mmHg 60%
    04:00 +29°C° 0 mm 1 mps 715 mmHg 61%
    05:00 +28°C° 0 mm 1 mps 715 mmHg 62%
    06:00 +29°C° 0 mm 1 mps 716 mmHg 60%
    07:00 +30°C° 0 mm 1 mps 716 mmHg 58%
    08:00 +32°C° 0 mm 1 mps 717 mmHg 57%
    09:00 +34°C° 0 mm 1 mps 717 mmHg 51%
    10:00 +37°C° 0 mm 2 mps 717 mmHg 45%
    11:00 +39°C° 0 mm 3 mps 717 mmHg 39%
    12:00 +40°C° 0 mm 3 mps 716 mmHg 36%
    13:00 +42°C° 0 mm 4 mps 715 mmHg 33%
    14:00 +43°C° 0 mm 4 mps 714 mmHg 30%
    15:00 +42°C° 0 mm 4 mps 714 mmHg 34%
    16:00 +42°C° 0 mm 3 mps 713 mmHg 37%
    17:00 +40°C° 0 mm 2 mps 713 mmHg 40%
    18:00 +38°C° 0 mm 2 mps 713 mmHg 46%
    19:00 +36°C° 0 mm 2 mps 713 mmHg 51%
    20:00 +33°C° 0 mm 1 mps 714 mmHg 56%
    21:00 +32°C° 0 mm 1 mps 714 mmHg 57%
    22:00 +32°C° 0 mm 1 mps 714 mmHg 58%
    23:00 +31°C° 0 mm 1 mps 715 mmHg 59%
    Show more